TimeEDT,TemperatureF,Dew PointF,Humidity,Sea Level PressureIn,VisibilityMPH,Wind Direction,Wind SpeedMPH,Gust SpeedMPH,PrecipitationIn,Events,Conditions,WindDirDegrees,DateUTC
1:00 AM,36.0,35.1,97,30.00,10.0,Calm,Calm,-,N/A,,Clear,0,2012-10-18 05:00:00
2:00 AM,36.0,35.1,97,30.00,9.0,Calm,Calm,-,N/A,,Clear,0,2012-10-18 06:00:00
3:00 AM,35.1,33.1,92,29.99,10.0,Calm,Calm,-,N/A,,Clear,0,2012-10-18 07:00:00
4:00 AM,35.1,34.0,96,29.98,10.0,Calm,Calm,-,N/A,,Clear,0,2012-10-18 08:00:00
5:00 AM,35.1,33.1,92,30.00,10.0,Calm,Calm,-,N/A,,Clear,0,2012-10-18 09:00:00
6:00 AM,34.0,33.1,96,30.01,10.0,Calm,Calm,-,N/A,,Clear,0,2012-10-18 10:00:00
7:00 AM,34.0,33.1,96,30.02,9.0,Calm,Calm,-,N/A,,Clear,0,2012-10-18 11:00:00
8:00 AM,39.0,37.9,96,30.03,8.0,Calm,Calm,-,N/A,,Clear,0,2012-10-18 12:00:00
9:00 AM,52.0,48.9,89,30.03,10.0,Calm,Calm,-,N/A,,Clear,0,2012-10-18 13:00:00
10:00 AM,62.1,48.9,62,30.02,10.0,SE,6.9,-,N/A,,Clear,130,2012-10-18 14:00:00
11:00 AM,64.9,48.9,56,30.02,10.0,South,10.4,-,N/A,,Clear,170,2012-10-18 15:00:00
12:00 PM,68.0,46.9,47,30.02,10.0,South,10.4,-,N/A,,Clear,170,2012-10-18 16:00:00
1:00 PM,68.0,48.9,50,30.01,10.0,SE,12.7,-,N/A,,Partly Cloudy,140,2012-10-18 17:00:00
2:00 PM,66.0,50.0,56,29.98,10.0,SE,11.5,-,N/A,,Partly Cloudy,130,2012-10-18 18:00:00
3:00 PM,68.0,51.1,55,29.96,10.0,ESE,13.8,19.6,N/A,,Partly Cloudy,120,2012-10-18 19:00:00
4:00 PM,66.0,55.0,68,29.96,10.0,SE,13.8,23.0,N/A,,Partly Cloudy,140,2012-10-18 20:00:00
4:37 PM,64.4,55.4,73,29.96,10.0,SE,16.1,23.0,N/A,,Mostly Cloudy,140,2012-10-18 20:37:00
5:00 PM,64.0,55.9,75,29.96,10.0,SE,9.2,-,N/A,,Overcast,130,2012-10-18 21:00:00
7:00 PM,64.0,57.9,80,29.97,10.0,East,6.9,-,N/A,,Overcast,100,2012-10-18 23:00:00
7:34 PM,62.6,59.0,88,29.97,10.0,ESE,6.9,-,0.00,,Overcast,110,2012-10-18 23:34:00
8:00 PM,63.0,59.0,87,29.97,9.0,ESE,5.8,-,0.00,Rain,Light Rain,120,2012-10-19 00:00:00
9:00 PM,64.0,60.1,87,29.94,10.0,East,8.1,-,0.00,,Overcast,100,2012-10-19 01:00:00
10:00 PM,64.0,61.0,90,29.94,10.0,ESE,9.2,-,N/A,,Overcast,110,2012-10-19 02:00:00
11:00 PM,64.9,59.0,81,29.91,10.0,ESE,8.1,-,0.00,Rain,Light Rain,120,2012-10-19 03:00:00